Total_Precipitation_Accumulation
1.62 1.64 1.61 1.69 1.83 1.83 1.77 1.78 1.81 1.80 1.79 1.89 2.03 2.17 2.20 2.20 2.19 2.19 2.13 2.07 2.05 2.00 1.94 1.89 1.84 1.79 1.81 1.77 1.78 1.86 1.95 2.03 1.98 1.48 1.24 1.25 1.39 1.44 1.46 1.36 1.30 1.33 1.36
1.48 1.58 1.51 1.49 1.66 1.76 1.68 1.63 1.66 1.68 1.58 1.60 1.69 1.79 1.87 1.89 1.90 1.92 1.91 1.88 1.86 1.85 1.81 1.80 1.76 1.73 1.72 1.71 1.76 1.78 1.82 1.87 1.91 1.70 1.39 1.30 1.33 1.33 1.32 1.32 1.27 1.23 1.21
1.38 1.44 1.42 1.39 1.45 1.53 1.59 1.56 1.54 1.61 1.58 1.48 1.47 1.54 1.58 1.62 1.65 1.64 1.63 1.65 1.65 1.63 1.65 1.68 1.67 1.72 1.77 1.71 1.68 1.66 1.62 1.63 1.70 1.71 1.49 1.28 1.24 1.23 1.28 1.28 1.24 1.19 1.12
1.27 1.28 1.27 1.28 1.28 1.28 1.33 1.37 1.37 1.39 1.46 1.49 1.38 1.33 1.37 1.43 1.49 1.54 1.55 1.54 1.56 1.58 1.58 1.59 1.59 1.63 1.63 1.64 1.68 1.66 1.61 1.61 1.61 1.66 1.58 1.45 1.37 1.31 1.36 1.39 1.36 1.25 1.19
1.21 1.25 1.24 1.22 1.19 1.17 1.17 1.14 1.16 1.21 1.29 1.38 1.38 1.32 1.25 1.30 1.38 1.45 1.50 1.52 1.52 1.54 1.55 1.54 1.57 1.67 1.72 1.69 1.67 1.65 1.70 1.81 1.82 1.83 1.72 1.54 1.41 1.37 1.34 1.25 1.30 1.29 1.29
1.08 1.16 1.18 1.17 1.16 1.15 1.12 1.10 1.06 1.09 1.18 1.30 1.36 1.38 1.36 1.37 1.61 1.61 1.53 1.53 1.55 1.53 1.50 1.45 1.45 1.53 1.53 1.60 1.63 1.61 1.71 1.87 1.99 1.99 1.79 1.50 1.26 1.16 1.14 1.20 1.33 1.44 1.41
0.91 0.99 1.05 1.06 1.09 1.10 1.10 1.14 1.18 1.19 1.22 1.31 1.40 1.45 1.46 1.53 1.69 1.61 1.60 1.47 1.46 1.46 1.42 1.37 1.33 1.31 1.36 1.26 1.36 1.44 1.47 1.60 1.70 1.64 1.56 1.29 1.15 1.12 1.29 1.42 1.38 1.37 1.21
0.96 0.98 0.97 1.02 1.07 1.11 1.18 1.27 1.36 1.41 1.42 1.48 1.54 1.56 1.57 1.60 1.65 1.57 1.59 1.40 1.32 1.28 1.21 1.15 1.12 1.08 1.10 1.18 1.24 1.32 1.24 1.20 1.23 1.21 1.18 1.12 1.10 1.18 1.40 1.62 1.65 1.62 1.36
0.99 1.04 1.04 1.10 1.19 1.25 1.35 1.43 1.47 1.55 1.54 1.49 1.48 1.48 1.46 1.44 1.46 1.42 1.41 1.25 1.19 1.12 1.05 1.00 1.00 0.96 1.11 1.29 1.30 1.33 1.15 1.04 1.10 1.20 1.28 1.31 1.42 1.49 1.55 1.82 1.99 2.07 1.84
1.09 1.19 1.19 1.20 1.27 1.31 1.34 1.33 1.32 1.33 1.31 1.25 1.21 1.17 1.14 1.12 1.18 1.20 1.22 1.17 1.12 1.00 0.94 0.92 1.03 1.02 1.18 1.32 1.26 1.27 1.22 1.02 1.00 1.08 1.14 1.19 1.19 1.29 1.47 1.52 1.71 2.05 1.89
1.22 1.28 1.27 1.22 1.22 1.20 1.16 1.10 1.05 1.02 1.00 0.96 0.93 0.90 0.86 0.85 0.91 0.97 1.06 1.11 1.17 1.10 0.98 0.89 0.88 1.07 1.21 1.31 1.28 1.19 1.22 1.23 1.20 1.20 1.16 1.13 1.15 1.20 1.24 1.24 1.36 1.80 2.07
1.15 1.13 1.09 0.99 0.96 0.91 0.88 0.91 0.89 0.86 0.90 0.91 0.87 0.84 0.78 0.74 0.79 0.84 0.94 1.06 1.14 1.15 1.05 0.91 0.89 1.09 1.15 1.19 1.18 1.22 1.32 1.34 1.26 1.31 1.32 1.25 1.17 1.12 1.09 1.11 1.16 1.29 1.46
0.89 0.90 0.88 0.85 0.82 0.81 0.79 0.82 0.87 0.86 0.86 0.86 0.85 0.87 0.84 0.77 0.80 0.90 0.95 1.05 1.14 1.11 1.04 1.06 1.11 1.14 1.12 1.05 1.08 1.19 1.22 1.17 1.21 1.28 1.25 1.17 1.10 1.07 1.10 1.17 1.23 1.27 1.31
0.78 0.83 0.84 0.84 0.82 0.82 0.82 0.81 0.85 0.89 0.90 0.87 0.85 0.87 0.86 0.81 0.80 0.87 0.98 1.06 1.13 1.15 1.13 1.11 1.09 1.07 1.09 1.06 1.03 1.04 1.05 1.10 1.22 1.24 1.19 1.14 1.15 1.22 1.28 1.29 1.36 1.37 1.48
0.79 0.85 0.89 0.89 0.86 0.85 0.86 0.86 0.88 0.91 0.99 1.09 1.05 0.99 1.01 0.98 0.92 1.06 1.18 1.18 1.21 1.25 1.29 1.18 1.05 1.00 1.04 1.03 0.99 0.97 1.01 1.10 1.21 1.20 1.25 1.29 1.29 1.31 1.31 1.31 1.43 1.48 1.54
0.82 0.85 0.87 0.90 0.90 0.89 0.85 0.87 0.92 0.93 0.97 0.99 1.00 1.02 0.99 1.01 1.05 1.12 1.16 1.19 1.26 1.35 1.41 1.22 1.02 0.94 0.95 0.95 0.96 0.98 1.00 1.07 1.14 1.24 1.32 1.37 1.40 1.39 1.36 1.30 1.39 1.53 1.52
0.86 0.88 0.89 0.90 0.91 0.91 0.86 0.83 0.89 0.93 0.95 0.94 0.94 0.96 0.98 1.04 1.08 1.09 1.13 1.20 1.27 1.36 1.35 1.12 0.94 0.88 0.88 0.91 0.95 0.99 1.00 0.99 1.11 1.29 1.40 1.46 1.50 1.49 1.46 1.43 1.40 1.44 1.42
0.80 0.86 0.89 0.89 0.92 0.95 0.94 0.90 0.85 0.86 0.88 0.88 0.88 0.94 0.98 1.02 1.05 1.07 1.12 1.20 1.23 1.20 1.11 1.02 0.98 0.94 0.97 1.00 1.02 1.05 1.07 1.10 1.17 1.25 1.35 1.45 1.58 1.65 1.59 1.48 1.43 1.44 1.46
0.76 0.84 0.88 0.89 0.92 0.96 0.99 1.00 0.95 0.88 0.86 0.85 0.84 0.91 0.98 1.03 1.05 1.07 1.08 1.07 1.03 1.00 0.96 0.96 0.98 1.02 1.07 1.09 1.10 1.13 1.18 1.22 1.22 1.29 1.33 1.39 1.54 1.71 1.63 1.46 1.47 1.47 1.56
0.73 0.87 0.93 0.94 0.95 0.98 0.99 0.99 0.98 0.93 0.89 0.84 0.83 0.90 1.00 1.08 1.04 0.99 0.99 0.96 0.93 0.89 0.90 0.97 1.02 1.10 1.18 1.23 1.24 1.25 1.26 1.23 1.26 1.33 1.34 1.36 1.44 1.62 1.66 1.56 1.55 1.58 1.51
0.68 0.76 0.86 0.85 0.87 0.93 0.97 0.99 1.01 1.00 0.94 0.86 0.85 0.93 1.15 1.20 1.06 0.95 0.96 1.00 1.02 1.00 1.00 1.03 1.05 1.11 1.20 1.27 1.31 1.30 1.28 1.21 1.22 1.35 1.42 1.43 1.48 1.55 1.50 1.58 1.59 1.60 1.62
0.62 0.67 0.73 0.79 0.83 0.91 0.99 0.99 0.99 0.98 0.94 0.89 0.85 0.90 1.02 1.00 0.93 0.90 0.92 0.97 1.00 1.04 1.08 1.16 1.14 1.09 1.20 1.37 1.47 1.49 1.35 1.19 1.17 1.32 1.43 1.44 1.48 1.54 1.58 1.65 1.64 1.64 1.63
0.60 0.64 0.67 0.71 0.78 0.87 0.90 0.88 0.89 0.90 0.91 0.88 0.86 0.87 0.88 0.88 0.85 0.84 0.87 0.91 0.95 0.98 1.01 1.10 1.15 1.08 1.06 1.22 1.41 1.68 1.72 1.45 1.32 1.51 1.79 1.78 1.66 1.66 1.70 1.69 1.57 1.57 1.50
0.59 0.63 0.66 0.70 0.74 0.80 0.82 0.82 0.81 0.82 0.83 0.83 0.83 0.85 0.86 0.87 0.86 0.85 0.87 0.90 0.93 0.94 0.96 1.04 1.09 1.07 1.06 1.17 1.27 1.38 1.52 1.67 1.98 2.20 2.29 2.32 2.00 1.72 1.68 1.63 1.51 1.47 1.47
0.58 0.62 0.67 0.72 0.76 0.78 0.79 0.78 0.77 0.77 0.78 0.78 0.80 0.81 0.82 0.82 0.82 0.82 0.84 0.86 0.88 0.88 0.88 0.93 1.01 1.04 1.04 1.07 1.14 1.20 1.32 1.62 2.05 2.38 2.41 2.28 1.98 1.71 1.67 1.62 1.52 1.49 1.47
0.61 0.64 0.68 0.72 0.76 0.77 0.77 0.76 0.73 0.73 0.75 0.74 0.74 0.76 0.77 0.78 0.77 0.77 0.79 0.81 0.83 0.82 0.81 0.82 0.88 0.95 0.99 1.00 0.98 1.08 1.30 1.47 1.58 1.74 2.14 2.31 2.05 1.72 1.66 1.72 1.58 1.52 1.49